Station GTOT2 - 8771450 - Galveston Pier 21, TX Image indicating link to RSS feed of recent meteorological observations for station GTOT2


Conditions at GTOT2 as of
(6:18 am CDT)
1118 GMT on 04/19/2024:
     

Click on the graph icon in the table below to see a time series plot of the last five days of that observation.

5-day plot - Wind Direction Wind Direction (WDIR): S ( 190 deg true )
5-day plot - Wind Speed Wind Speed (WSPD): 1.9 kts
5-day plot - Wind Gust Wind Gust (GST): 5.1 kts
5-day plot - Atmospheric Pressure Atmospheric Pressure (PRES):29.93 in
5-day plot - Air Temperature Air Temperature (ATMP): 74.3 °F
5-day plot - Water Temperature Water Temperature (WTMP): 75.7 °F
5-day plot - Wind Speed at 10 Meters Wind Speed at 10 meters (WSPD10M): 1.9 kts
5-day plot - Wind Speed at 20 Meters Wind Speed at 20 meters (WSPD20M): 1.9 kts
5-day plot -  Wind Speed, Wind Gust and Atmospheric Pressure Combined plot of Wind Speed, Gust, and Air Pressure
NOS Water Level Observation Network Water Level
Previous observations
TIME
(CDT)
5-day plot - Wind Direction
WDIR
 
5-day plot - Wind Speed
WSPD
kts
5-day plot - Wind Gust
GST
kts
5-day plot - Wave Height
WVHT
ft
5-day plot - Dominant Wave Period
DPD
sec
5-day plot - Average Wave Period
APD
sec
5-day plot - Mean Wave Direction
MWD
 
5-day plot - Atmospheric Pressure
PRES
in
5-day plot - Pressure Tendency
PTDY
in
5-day plot - Air Temperature
ATMP
°F
5-day plot - Water Temperature
WTMP
°F
5-day plot - Dew Point
DEWP
°F
5-day plot - Salinity
SAL
psu
5-day plot - Visibility
VIS
nmi
5-day plot - Tide (above MLLW)
TIDE
ft
2024-04-19 06:12 am S 2.9 5.1----29.93- 74.3 75.7----
2024-04-19 06:06 am S 4.1 5.1----29.93- 74.3 75.7----
2024-04-19 06:00 amSSW 2.9 5.1----29.93+0.01 74.5 75.7----
2024-04-19 05:54 amSSW 2.9 5.1----29.93- 74.5 75.7----
2024-04-19 05:48 am S 4.1 6.0----29.93- 74.5 75.7----
2024-04-19 05:42 amSSW 4.1 6.0----29.93- 74.5 75.7----
2024-04-19 05:36 amSSW 4.1 7.0----29.93- 74.5 75.7----
2024-04-19 05:30 amSSW 5.1 8.0----29.92- 74.5 75.7----
2024-04-19 05:24 am S 1.9 7.0----29.92- 74.5 75.7----
2024-04-19 05:18 amSSW 2.9 6.0----29.92- 74.5 75.7----
2024-04-19 05:12 amSSW 2.9 5.1----29.93- 74.5 75.7----
2024-04-19 05:06 amSSW 4.1 8.0----29.93- 74.5 75.7----
2024-04-19 05:00 amSSW 5.1 8.0----29.93+0.00 74.5 75.7----
2024-04-19 04:54 amSSW 5.1 8.0----29.92- 74.5 75.7----
2024-04-19 04:48 am S 5.1 8.0----29.92- 74.5 75.7----
2024-04-19 04:42 am S 5.1 8.9----29.92- 74.5 75.7----
2024-04-19 04:36 am S 2.9 6.0----29.92- 74.7 75.7----
2024-04-19 04:30 am S 5.1 8.0----29.92- 74.7 75.7----
2024-04-19 04:24 am S 4.1 7.0----29.92- 74.7 75.7----
2024-04-19 04:18 amSSW 2.9 7.0----29.92- 74.7 75.7----
2024-04-19 04:12 am S 6.0 8.0----29.92- 74.5 75.7----
2024-04-19 04:06 am S 2.9 8.0----29.92- 74.5 75.7----
2024-04-19 04:00 am S 2.9 7.0----29.92-0.01 74.5 75.7----
2024-04-19 03:54 am S 6.0 8.9----29.91- 74.3 75.7----
2024-04-19 03:48 am S 5.1 8.0----29.91- 74.3 75.7----
2024-04-19 03:42 am S 5.1 8.9----29.90- 74.3 75.7----
2024-04-19 03:36 am S 5.1 7.0----29.90- 74.3 75.7----
2024-04-19 03:30 am S 5.1 9.9----29.90- 74.3 75.7----
2024-04-19 03:24 am S 5.1 8.0----29.91- 74.3 75.7----
2024-04-19 03:18 am S 5.1 8.0----29.91- 74.3 75.7----
2024-04-19 03:12 amSSE 2.9 6.0----29.91- 74.3 75.7----
2024-04-19 03:06 am SE 4.1 8.0----29.91- 74.3 75.7----
2024-04-19 03:00 amESE 6.0 11.1----29.91-0.04 74.5 75.7----
2024-04-19 02:54 am SE 6.0 8.9----29.92- 74.5 75.7----
2024-04-19 02:48 amESE 5.1 8.0----29.92- 74.5 75.7----
2024-04-19 02:42 am SE 5.1 8.9----29.92- 74.5 75.7----
2024-04-19 02:36 am SE 5.1 7.0----29.92- 74.5 75.7----
2024-04-19 02:30 am SE 4.1 7.0----29.92- 74.5 75.7----
2024-04-19 02:24 am SE 4.1 6.0----29.92- 74.5 75.7----
2024-04-19 02:18 amSSE 2.9 4.1----29.93- 74.7 75.7----
2024-04-19 02:12 am SE 2.9 5.1----29.92- 74.7 75.7----
2024-04-19 02:06 am SE 2.9 7.0----29.93- 74.7 75.7----
2024-04-19 02:00 amESE 4.1 6.0----29.93-0.02 74.7 75.7----
2024-04-19 01:54 am SE 4.1 7.0----29.93- 74.7 75.7----
2024-04-19 01:48 am SE 4.1 6.0----29.93- 74.8 75.7----
2024-04-19 01:42 amSSE 2.9 5.1----29.93- 74.8 75.7----
2024-04-19 01:36 am SE 2.9 5.1----29.93- 74.8 75.7----
2024-04-19 01:30 am SE 5.1 7.0----29.93- 74.8 75.7----
2024-04-19 01:24 am SE 1.9 6.0----29.93- 74.8 75.7----
2024-04-19 01:18 am SE 4.1 8.0----29.93- 74.8 75.7----
2024-04-19 01:12 amSSE 2.9 8.0----29.93- 74.8 75.7----
2024-04-19 01:06 amSSE 1.9 6.0----29.93- 74.8 75.7----
2024-04-19 01:00 am S 4.1 7.0----29.93-0.02 74.8 75.7----
2024-04-19 12:54 amSSE 2.9 8.9----29.93- 74.8 75.7----
2024-04-19 12:48 am S 4.1 8.0----29.93- 74.8 75.7----
2024-04-19 12:42 am S 4.1 7.0----29.93- 74.8 75.7----
2024-04-19 12:36 amSSE 4.1 8.0----29.94- 74.8 75.7----
2024-04-19 12:30 amSSE 2.9 7.0----29.94- 75.0 75.7----
2024-04-19 12:24 amSSE 1.9 6.0----29.95- 75.0 75.7----
2024-04-19 12:18 amSSE 1.0 7.0----29.95- 75.0 75.7----
2024-04-19 12:12 amSSE 2.9 6.0----29.96- 75.0 75.7----
2024-04-19 12:06 amSSE 2.9 6.0----29.96- 75.0 75.7----
2024-04-19 12:00 am SE 1.9 5.1----29.96+0.03 75.0 75.7----
2024-04-18 11:54 pmSSE 2.9 6.0----29.96- 75.0 75.7----
2024-04-18 11:48 pmSSE 1.9 5.1----29.96- 74.8 75.7----
2024-04-18 11:42 pm S 1.9 5.1----29.96- 74.8 75.7----
2024-04-18 11:36 pm S 4.1 8.0----29.95- 74.8 75.7----
2024-04-18 11:30 pm S 5.1 9.9----29.94- 74.8 75.7----
2024-04-18 11:24 pm S 6.0 12.0----29.94- 74.8 75.7----
2024-04-18 11:18 pm S 5.1 8.9----29.94- 74.7 75.7----
2024-04-18 11:12 pm S 7.0 9.9----29.94- 74.7 75.7----
2024-04-18 11:06 pm S 6.0 11.1----29.94- 74.7 75.7----
2024-04-18 11:00 pmSSE 4.1 8.0----29.95+0.05 74.7 75.7----
2024-04-18 10:54 pm S 6.0 11.1----29.95- 74.7 75.7----
2024-04-18 10:48 pm S 6.0 9.9----29.95- 74.7 75.7----
2024-04-18 10:42 pm S 6.0 9.9----29.94- 74.7 75.7----
2024-04-18 10:36 pm S 5.1 11.1----29.94- 74.7 75.7----
2024-04-18 10:30 pm S 5.1 13.0----29.94- 74.7 75.7----
2024-04-18 10:24 pm S 8.9 13.0----29.94- 74.7 75.7----
2024-04-18 10:18 pm S 7.0 12.0----29.94- 74.7 75.7----
2024-04-18 10:12 pm S 6.0 8.9----29.95- 74.8 75.7----
2024-04-18 10:06 pm S 6.0 9.9----29.94- 74.8 75.7----
2024-04-18 10:00 pm S 7.0 11.1----29.94+0.06 74.8 75.7----
2024-04-18 09:54 pm S 6.0 9.9----29.94- 74.8 75.7----
2024-04-18 09:48 pm S 6.0 8.9----29.94- 74.8 75.7----
2024-04-18 09:42 pm S 6.0 8.9----29.94- 75.0 75.7----
2024-04-18 09:36 pm S 4.1 8.0----29.95- 75.0 75.7----
2024-04-18 09:30 pm S 5.1 8.9----29.94- 75.0 75.7----
2024-04-18 09:24 pm S 5.1 8.9----29.94- 75.0 75.7----
2024-04-18 09:18 pmSSE 4.1 7.0----29.94- 75.0 75.7----
2024-04-18 09:12 pmSSE 1.9 6.0----29.94- 75.0 75.7----
2024-04-18 09:06 pmSSE 4.1 7.0----29.94- 75.0 75.7----
2024-04-18 09:00 pmSSE 2.9 8.0----29.93+0.03 75.0 75.7----
2024-04-18 08:54 pmSSE 4.1 9.9----29.92- 75.0 75.7----
2024-04-18 08:48 pmSSE 5.1 9.9----29.92- 75.0 75.7----
2024-04-18 08:42 pm S 5.1 9.9----29.92- 75.0 75.7----
2024-04-18 08:36 pm S 5.1 9.9----29.91- 74.8 75.7----
2024-04-18 08:30 pm S 6.0 13.0----29.91- 74.8 75.7----
2024-04-18 08:24 pm S 6.0 12.0----29.90- 74.8 75.7----
2024-04-18 08:18 pmSSE 5.1 9.9----29.91- 74.8 75.7----
2024-04-18 08:12 pmSSE 5.1 9.9----29.91- 74.8 75.7----
2024-04-18 08:06 pmSSE 4.1 9.9----29.90- 75.0 75.9----
2024-04-18 08:00 pmSSE 5.1 9.9----29.90+0.00 75.0 75.9----
2024-04-18 07:54 pm SE 5.1 11.1----29.90- 75.0 75.9----
2024-04-18 07:48 pmSSE 5.1 8.9----29.90- 75.0 75.9----
2024-04-18 07:42 pmSSE 5.1 9.9----29.90- 75.0 75.9----
2024-04-18 07:36 pm S 5.1 8.9----29.90- 75.0 75.9----
2024-04-18 07:30 pm S 6.0 9.9----29.89- 75.0 75.9----
2024-04-18 07:24 pm S 5.1 9.9----29.89- 75.2 75.9----
2024-04-18 07:18 pmSSE 6.0 12.0----29.88- 75.2 75.9----
2024-04-18 07:12 pmSSE 5.1 8.9----29.88- 75.4 75.9----
2024-04-18 07:06 pm SE 5.1 9.9----29.88- 75.4 75.9----
2024-04-18 07:00 pmSSE 4.1 8.0----29.88-0.03 75.6 75.9----
2024-04-18 06:54 pmSSE 5.1 11.1----29.88- 75.4 75.9----
2024-04-18 06:48 pm S 6.0 12.0----29.88- 75.4 75.9----
2024-04-18 06:42 pm S 8.0 13.0----29.88- 75.4 75.9----
2024-04-18 06:36 pmSSE 6.0 11.1----29.88- 75.4 75.9----
2024-04-18 06:30 pm SE 6.0 11.1----29.88- 75.6 75.9----
2024-04-18 06:24 pm SE 5.1 8.9----29.88- 75.6 75.9----
2024-04-18 06:18 pmSSE 8.0 13.0----29.89- 75.4 75.9----
2024-04-18 06:00 pm S 8.9 15.9----29.90-0.03 75.2 75.9----
2024-04-18 05:54 pm S 11.1 17.1----29.88- 75.2 75.9----
2024-04-18 05:48 pm S 14.0 19.0----29.88- 75.0 75.9----
2024-04-18 05:42 pmSSE 8.0 15.0----29.88- 75.0 75.9----
2024-04-18 05:36 pm SE 12.0 17.1----29.86- 74.8 75.9----
2024-04-18 05:30 pm SE 8.9 13.0----29.89- 75.0 75.9----
2024-04-18 05:24 pm SE 5.1 7.0----29.91- 75.2 75.9----
2024-04-18 05:18 pm S 5.1 11.1----29.92- 75.2 75.9----
2024-04-18 05:12 pmSSW 4.1 7.0----29.92- 75.4 75.9----
2024-04-18 05:06 pm SE 2.9 8.9----29.91- 75.2 75.9----
2024-04-18 05:00 pmESE 5.1 8.9----29.90-0.04- 75.9----
2024-04-18 04:54 pm SE 4.1 9.9----29.91-- 75.9----
2024-04-18 04:48 pm- 0.0 6.0----29.91- 75.4 75.9----
2024-04-18 04:42 pm SE 4.1 6.0----29.90- 75.4 75.9----
2024-04-18 04:36 pm S 5.1 14.0----29.91- 75.2 76.1----
2024-04-18 04:30 pm SE 6.0 11.1----29.88- 75.2 76.1----
2024-04-18 04:24 pm SE 5.1 8.0----29.90- 75.4 76.1----
2024-04-18 04:18 pm SE 5.1 8.9----29.90- 75.4 76.1----
2024-04-18 04:12 pmSSE 2.9 8.9----29.91- 75.6 76.1----
2024-04-18 04:06 pm SE 7.0 8.9----29.89- 75.6 76.1----
2024-04-18 04:00 pm SE 5.1 7.0----29.92-0.03 75.4 76.1----
2024-04-18 03:54 pmSSE 2.9 6.0----29.93- 75.6 76.1----
2024-04-18 03:48 pm S 6.0 8.9----29.93- 75.2 76.1----
2024-04-18 03:42 pmSSE 2.9 5.1----29.93- 75.2 76.1----
2024-04-18 03:36 pmWSW 4.1 6.0----29.93- 75.2 76.1----
2024-04-18 03:30 pmSSE 1.9 12.0----29.92- 75.4 76.1----
2024-04-18 03:24 pm SE 8.0 15.9----29.88- 75.2 76.1----
2024-04-18 03:18 pm SE 6.0 12.0----29.89- 75.6 76.1----
2024-04-18 03:12 pm SE 6.0 12.0----29.91- 75.6 76.1----
2024-04-18 03:06 pm SE 6.0 9.9----29.91- 75.6 76.1----
2024-04-18 03:00 pm SE 4.1 8.0----29.93-0.03 75.6 76.1----
2024-04-18 02:54 pm SE 5.1 8.9----29.94- 75.6 76.1----
2024-04-18 02:48 pm SE 4.1 6.0----29.94- 75.7 76.1----
2024-04-18 02:42 pm S 4.1 8.0----29.95- 75.7 76.1----
2024-04-18 02:36 pmSSE 5.1 9.9----29.93- 75.9 76.3----
2024-04-18 02:30 pm SE 8.0 11.1----29.93- 75.6 76.3----
2024-04-18 02:24 pm SE 5.1 12.0----29.93- 75.9 76.3----
2024-04-18 02:18 pm SE 8.0 12.0----29.93- 75.6 76.3----
2024-04-18 02:12 pm SE 4.1 12.0----29.94- 76.3 76.3----
2024-04-18 02:06 pmSSE 5.1 8.9----29.94- 76.1 76.3----
2024-04-18 02:00 pm SE 7.0 11.1----29.94-0.02 75.9 76.3----
2024-04-18 01:54 pm SE 7.0 12.0----29.94- 75.7 76.3----
2024-04-18 01:48 pmSSE 7.0 11.1----29.94- 75.7 76.3----
2024-04-18 01:42 pm SE 7.0 20.0----29.92- 75.7 76.3----
2024-04-18 01:36 pm SE 13.0 18.1----29.89- 75.4 76.3----
2024-04-18 01:30 pm SE 8.0 12.0----29.93- 76.1 76.3----
2024-04-18 01:24 pmSSE 6.0 14.0----29.95- 76.5 76.3----
2024-04-18 01:18 pm SE 7.0 13.0----29.95- 76.8 76.3----
2024-04-18 01:12 pm SE 6.0 13.0----29.95- 77.2 76.3----
2024-04-18 01:06 pmSSE 6.0 14.0----29.95- 77.4 76.3----
2024-04-18 01:00 pm SE 7.0 12.0----29.95-0.01 77.5 76.3----
2024-04-18 12:54 pmSSE 7.0 12.0----29.95- 77.5 76.3----
2024-04-18 12:48 pmSSE 5.1 11.1----29.95- 78.1 76.3----
2024-04-18 12:42 pmSSE 7.0 13.0----29.96- 77.4 76.1----
2024-04-18 12:36 pmSSE 7.0 14.0----29.96- 77.5 76.1----
2024-04-18 12:30 pmSSE 6.0 14.0----29.96- 77.7 76.1----
2024-04-18 12:24 pmSSE 7.0 15.0----29.95- 77.0 76.1----
2024-04-18 12:18 pmSSE 7.0 11.1----29.95- 77.4 76.1----
2024-04-18 12:12 pmSSE 6.0 11.1----29.96- 77.2 76.1----
2024-04-18 12:06 pmSSE 7.0 12.0----29.96- 77.0 76.1----
2024-04-18 12:00 pm S 7.0 12.0----29.96+0.03 77.5 75.9----
2024-04-18 11:54 amSSE 6.0 13.0----29.96- 77.5 75.9----
2024-04-18 11:48 amSSE 5.1 11.1----29.96- 77.9 75.9----
2024-04-18 11:42 am SE 6.0 12.0----29.96- 77.0 75.7----
2024-04-18 11:36 am SE 4.1 8.9----29.96- 77.4 75.7----
2024-04-18 11:30 amSSE 5.1 8.9----29.97- 77.4 75.6----
2024-04-18 11:24 amSSE 6.0 8.9----29.97- 77.2 75.6----
2024-04-18 11:18 amSSE 5.1 9.9----29.96- 77.2 75.6----
2024-04-18 11:12 amSSE 6.0 9.9----29.96- 76.8 75.6----
2024-04-18 11:06 am SE 7.0 8.9----29.96- 76.8 75.6----
2024-04-18 11:00 amSSE 6.0 11.1----29.96+0.04 76.8 75.6----
2024-04-18 10:54 amSSE 6.0 11.1----29.96- 77.0 75.6----
2024-04-18 10:48 amSSE 4.1 8.9----29.96- 77.2 75.6----
2024-04-18 10:42 amSSE 5.1 8.9----29.96- 76.5 75.6----
2024-04-18 10:36 am SE 6.0 11.1----29.96- 75.9 75.6----
2024-04-18 10:30 am SE 4.1 8.9----29.96- 75.9 75.4----
2024-04-18 10:24 amSSE 5.1 8.9----29.96- 76.1 75.4----
2024-04-18 10:18 am SE 5.1 8.9----29.96- 76.1 75.4----
2024-04-18 10:12 am SE 6.0 8.9----29.96- 76.5 75.4----
2024-04-18 10:06 amSSE 4.1 7.0----29.96- 76.6 75.4----
2024-04-18 10:00 am SE 5.1 8.9----29.96+0.04 75.9 75.4----
2024-04-18 09:54 am SE 2.9 8.0----29.96- 76.1 75.4----
2024-04-18 09:48 am SE 2.9 7.0------------
2024-04-18 09:42 amSSE 5.1 8.9------------
2024-04-18 09:36 amSSE 6.0 9.9------------
2024-04-18 09:30 amSSE 5.1 7.0----29.94- 75.0 75.4----
2024-04-18 09:24 amSSE 4.1 8.0----29.94- 75.0 75.4----
2024-04-18 09:18 amSSE 2.9 8.0----29.94- 75.0 75.4----
2024-04-18 09:12 am S 5.1 11.1----29.95- 74.8 75.4----
2024-04-18 09:06 am SE 5.1 8.0----29.94- 74.8 75.4----
2024-04-18 09:00 am SE 4.1 8.9----29.93+0.04 74.8 75.4----
2024-04-18 08:54 am S 5.1 8.0----29.93- 74.7 75.4----
2024-04-18 08:48 am SE 2.9 8.9----29.93- 74.7 75.4----
2024-04-18 08:42 amSSE 4.1 8.0----29.93- 74.7 75.4----
2024-04-18 08:36 am S 5.1 7.0----29.94- 74.7 75.4----
2024-04-18 08:30 amSSE 5.1 7.0----29.93- 74.7 75.4----
2024-04-18 08:24 am SE 4.1 6.0----29.93- 74.7 75.4----
2024-04-18 08:18 amSSE 2.9 8.0----29.93- 74.8 75.4----
2024-04-18 08:12 amSSE 2.9 8.9----29.93- 74.7 75.4----
2024-04-18 08:06 amSSE 2.9 6.0----29.93- 74.7 75.4----
2024-04-18 08:00 am SE 2.9 6.0----29.93+0.03 74.7 75.4----
2024-04-18 07:54 amSSE 2.9 6.0----29.93- 74.5 75.4----
2024-04-18 07:48 amSSE 5.1 7.0----29.94- 74.3 75.4----
2024-04-18 07:42 amSSE 4.1 6.0----29.93- 74.3 75.4----
2024-04-18 07:36 amSSE 4.1 5.1----29.93- 74.1 75.4----
2024-04-18 07:30 am S 4.1 7.0----29.93- 74.1 75.4----
2024-04-18 07:24 am S 4.1 6.0----29.93- 74.1 75.4----
2024-04-18 07:18 amSSE 4.1 7.0----29.92- 74.1 75.4----
2024-04-18 07:12 amSSE 2.9 6.0----29.92- 74.1 75.4----
2024-04-18 07:06 am S 4.1 6.0----29.92- 74.1 75.4----
2024-04-18 07:00 amSSE 1.9 5.1----29.92+0.02 74.1 75.4----
2024-04-18 06:54 am S 2.9 6.0----29.91- 74.1 75.4----